GW5274 Weather Reports


Display with metric or nautical units.
time (UTC)temp
F
wind
direction
speed
MPH
gust
MPH
rain 1hr
in
rain 24hr
in
rain mn
in
humidity
%
barometer
mb
20260510065521 46 229 0.0 4.0 0.00 0.00 0.00 97 1014.8
20260510065017 46 187 0.0 2.0 0.00 0.00 0.00 95 1014.9
20260510064515 46 112 2.0 4.0 0.00 0.00 0.00 96 1014.8
20260510064011 46 135 1.0 3.0 0.00 0.00 0.00 96 1015.0
20260510063508 46 153 1.0 3.0 0.00 0.00 0.00 96 1014.9
20260510063005 46 208 2.0 7.0 0.00 0.00 0.00 96 1014.9
20260510062501 46 202 0.0 3.0 0.00 0.00 0.00 95 1014.9
20260510061955 47 194 3.0 3.0 0.00 0.00 0.00 94 1014.7
20260510061452 46 209 1.0 3.0 0.00 0.00 0.00 95 1014.8
20260510060949 46 213 0.0 1.0 0.00 0.00 0.00 95 1014.9
20260510060446 47 141 1.0 1.0 0.00 0.00 0.00 94 1014.8
20260510055942 47 140 2.0 2.0 0.00 0.00 0.00 94 1015.1
20260510055438 47 129 2.0 2.0 0.00 0.00 0.00 95 1015.0
20260510054936 47 128 1.0 2.0 0.00 0.00 0.00 95 1015.0
20260510054432 46 150 2.0 2.0 0.00 0.00 0.00 95 1015.0
20260510053927 46 152 1.0 2.0 0.00 0.00 0.00 94 1015.3
20260510053422 46 135 2.0 2.0 0.00 0.00 0.00 94 1015.4
20260510052919 46 145 2.0 2.0 0.00 0.00 0.00 94 1015.3
20260510052415 48 112 0.0 2.0 0.00 0.00 0.00 91 1015.1
20260510051911 48 131 1.0 3.0 0.00 0.00 0.00 91 1015.3
20260510051408 47 127 2.0 3.0 0.00 0.00 0.00 91 1015.4
20260510050904 48 131 2.0 3.0 0.00 0.00 0.00 91 1015.3
20260510050401 48 139 2.0 3.0 0.00 0.00 0.00 90 1015.4
20260510045858 48 129 1.0 2.0 0.00 0.00 0.00 90 1015.4
20260510045355 48 121 4.0 4.0 0.00 0.00 0.00 90 1015.4
20260510044852 48 136 3.0 3.0 0.00 0.00 0.00 89 1015.5
20260510044349 48 114 3.0 4.0 0.00 0.00 0.00 89 1015.4
20260510043845 49 126 3.0 3.0 0.00 0.00 0.00 88 1015.3
20260510043341 49 95 3.0 3.0 0.00 0.00 0.00 88 1015.4
20260510042839 49 116 3.0 4.0 0.00 0.00 0.00 88 1015.1
20260510042335 49 124 2.0 3.0 0.00 0.00 0.00 88 1015.3
20260510041831 49 140 1.0 3.0 0.00 0.00 0.00 88 1015.0
20260510041328 49 115 1.0 4.0 0.00 0.00 0.00 87 1014.9
20260510040825 49 84 3.0 4.0 0.00 0.00 0.00 87 1014.8
20260510040322 49 105 2.0 6.0 0.00 0.00 0.00 87 1014.8
20260510035818 49 129 2.0 3.0 0.00 0.00 0.00 87 1014.9
20260510035314 49 127 1.0 4.0 0.00 0.00 0.00 86 1014.8
20260510034810 49 103 2.0 4.0 0.00 0.00 0.00 85 1014.6
20260510034308 50 101 3.0 3.0 0.00 0.00 0.00 85 1014.7
20260510033804 50 77 2.0 4.0 0.00 0.00 0.00 85 1014.5
20260510033301 50 143 2.0 2.0 0.00 0.00 0.00 85 1014.8
20260510032758 50 142 1.0 2.0 0.00 0.00 0.00 84 1014.7
20260510032254 50 53 1.0 3.0 0.00 0.00 0.00 83 1014.7
20260510031749 51 105 4.0 6.0 0.00 0.00 0.00 83 1014.5
20260510031245 51 143 2.0 3.0 0.00 0.00 0.00 84 1014.6
20260510030744 51 82 2.0 6.0 0.00 0.00 0.00 82 1014.4
20260510030242 51 95 2.0 3.0 0.00 0.00 0.00 82 1014.6
20260510025739 51 128 2.0 3.0 0.00 0.00 0.00 82 1014.5
20260510025237 51 124 2.0 2.0 0.00 0.00 0.00 82 1014.3
20260510024734 51 113 2.0 2.0 0.00 0.00 0.00 82 1014.5
20260510024230 51 130 1.0 2.0 0.00 0.00 0.00 82 1014.5
20260510023726 51 138 1.0 2.0 0.00 0.00 0.00 82 1014.5
20260510023223 51 129 1.0 2.0 0.00 0.00 0.00 83 1014.5
20260510022719 51 127 1.0 4.0 0.00 0.00 0.00 81 1014.3
20260510022219 51 173 1.0 2.0 0.00 0.00 0.00 82 1014.5
20260510021714 50 211 0.0 2.0 0.00 0.00 0.00 82 1014.5
20260510021212 51 180 1.0 2.0 0.00 0.00 0.00 82 1014.2
20260510020707 51 202 1.0 2.0 0.00 0.00 0.00 82 1014.2
20260510020202 52 135 1.0 1.0 0.00 0.00 0.00 80 1014.1
20260510015658 53 134 0.0 0.0 0.00 0.00 0.00 78 1014.0
20260510015155 53 134 1.0 1.0 0.00 0.00 0.00 77 1014.1
20260510014655 53 135 1.0 1.0 0.00 0.00 0.00 77 1013.9
20260510014154 54 134 0.0 1.0 0.00 0.00 0.00 75 1013.9
20260510013654 53 150 0.0 1.0 0.00 0.00 0.00 76 1013.8
20260510013150 54 203 2.0 3.0 0.00 0.00 0.00 75 1013.4
20260510012649 54 124 1.0 2.0 0.00 0.00 0.00 74 1013.2
20260510012145 55 135 0.0 2.0 0.00 0.00 0.00 72 1013.3
20260510011640 55 131 2.0 2.0 0.00 0.00 0.00 72 1013.1
20260510011136 55 131 1.0 2.0 0.00 0.00 0.00 71 1013.0
20260510010632 55 131 1.0 2.0 0.00 0.00 0.00 71 1013.1
20260510010130 55 131 2.0 2.0 0.00 0.00 0.00 71 1013.1
20260510005625 56 131 0.0 0.0 0.00 0.00 0.00 70 1013.0
20260510005123 56 131 1.0 2.0 0.00 0.00 0.00 70 1012.7
20260510004621 56 131 0.0 1.0 0.00 0.00 0.00 67 1012.6
20260510004119 57 131 0.0 1.0 0.00 0.00 0.00 67 1012.7
20260510003615 58 137 1.0 1.0 0.00 0.00 0.00 65 1012.5
20260510003111 58 142 2.0 2.0 0.00 0.00 0.00 65 1012.3
20260510002606 58 144 1.0 2.0 0.00 0.00 0.00 63 1012.4
20260510002103 59 275 0.0 2.0 0.00 0.00 0.00 65 1012.5
20260510001600 59 121 1.0 2.0 0.00 0.00 0.00 63 1012.1
20260510001059 59 110 1.0 2.0 0.00 0.00 0.00 61 1012.1
20260510000553 60 167 0.0 1.0 0.00 0.00 0.00 59 1012.4
20260510000050 60 229 0.0 1.0 0.00 0.00 0.00 60 1012.4
20260509235547 61 252 0.0 1.0 0.00 0.00 0.00 59 1012.4
20260509235044 62 253 0.0 2.0 0.00 0.00 0.00 56 1012.0
20260509234540 62 179 2.0 3.0 0.00 0.00 0.00 54 1012.1
20260509234038 63 262 2.0 3.0 0.00 0.00 0.00 52 1011.9
20260509233535 64 257 2.0 3.0 0.00 0.00 0.00 53 1012.0
20260509233032 65 279 2.0 3.0 0.00 0.00 0.00 50 1011.8
20260509232529 65 286 3.0 4.0 0.00 0.00 0.00 50 1012.0
20260509232025 64 254 2.0 3.0 0.00 0.00 0.00 51 1011.9
20260509231522 64 268 1.0 4.0 0.00 0.00 0.00 51 1012.0
20260509231020 65 278 3.0 6.0 0.00 0.00 0.00 49 1012.0
20260509230517 66 262 4.0 6.0 0.00 0.00 0.00 49 1011.9
20260509230014 66 296 2.0 4.0 0.00 0.00 0.00 49 1012.0
20260509225509 65 50 0.0 3.0 0.00 0.00 0.00 48 1012.1
20260509225005 66 20 1.0 2.0 0.00 0.00 0.00 47 1012.1
20260509224500 65 64 1.0 2.0 0.00 0.00 0.00 48 1012.1
20260509223957 66 96 2.0 3.0 0.00 0.00 0.00 51 1011.9
20260509223449 68 225 3.0 4.0 0.00 0.00 0.00 46 1012.1
20260509222946 67 122 1.0 2.0 0.00 0.00 0.00 48 1011.9
20260509222442 68 259 6.0 7.0 0.00 0.00 0.00 49 1012.3
20260509221937 65 270 5.0 6.0 0.00 0.00 0.00 50 1012.0
20260509221434 65 238 2.0 8.0 0.00 0.00 0.00 52 1012.3
20260509220930 64 221 0.0 2.0 0.00 0.00 0.00 48 1012.3
20260509220426 64 283 2.0 2.0 0.00 0.00 0.00 54 1012.4
20260509215922 64 299 3.0 4.0 0.00 0.00 0.00 50 1012.3
20260509215418 64 180 2.0 4.0 0.00 0.00 0.00 49 1012.4
20260509214915 64 276 4.0 6.0 0.00 0.00 0.00 51 1012.4
20260509214413 64 291 3.0 7.0 0.00 0.00 0.00 49 1012.1
20260509213909 64 336 5.0 7.0 0.00 0.00 0.00 49 1012.1
20260509213405 65 29 5.0 9.0 0.00 0.00 0.00 49 1012.0
20260509212903 65 241 3.0 3.0 0.00 0.00 0.00 50 1012.4
20260509212400 65 343 1.0 4.0 0.00 0.00 0.00 47 1012.0
20260509211856 65 16 2.0 4.0 0.00 0.00 0.00 51 1012.0
20260509211352 64 120 0.0 1.0 0.00 0.00 0.00 53 1011.9
20260509210849 64 41 4.0 6.0 0.00 0.00 0.00 49 1011.8
20260509210347 64 306 2.0 8.0 0.00 0.00 0.00 49 1011.8
20260509205846 65 289 2.0 4.0 0.00 0.00 0.00 48 1011.7
20260509205340 65 243 2.0 4.0 0.00 0.00 0.00 46 1011.5
20260509204837 66 316 1.0 4.0 0.00 0.00 0.00 50 1011.6
20260509204333 66 18 2.0 3.0 0.00 0.00 0.00 45 1011.5
20260509203830 65 33 2.0 7.0 0.00 0.00 0.00 45 1011.4
20260509203327 66 275 2.0 4.0 0.00 0.00 0.00 44 1011.2
20260509202823 66 321 5.0 6.0 0.00 0.00 0.00 44 1011.3
20260509202319 66 306 5.0 8.0 0.00 0.00 0.00 43 1011.2
20260509201818 67 264 4.0 9.0 0.00 0.00 0.00 43 1011.2
20260509201316 69 299 5.0 8.0 0.00 0.00 0.00 42 1011.0
20260509200812 67 63 1.0 3.0 0.00 0.00 0.00 41 1011.0
20260509200307 66 278 2.0 7.0 0.00 0.00 0.00 45 1011.1
20260509195804 66 278 7.0 9.0 0.00 0.00 0.00 41 1011.2
20260509195259 67 279 5.0 9.0 0.00 0.00 0.00 42 1011.4
20260509194759 67 327 3.0 8.0 0.00 0.00 0.00 42 1011.2
20260509194256 66 285 1.0 8.0 0.00 0.00 0.00 40 1011.6
20260509193753 67 179 5.0 8.0 0.00 0.00 0.00 40 1011.4
20260509193252 65 151 2.0 9.0 0.00 0.00 0.00 38 1011.4
20260509192749 67 243 4.0 11.0 0.00 0.00 0.00 41 1011.4
20260509192244 65 333 2.0 3.0 0.00 0.00 0.00 46 1011.3
20260509191740 65 273 3.0 7.0 0.00 0.00 0.00 45 1011.4
20260509191236 66 183 2.0 9.0 0.00 0.00 0.00 42 1011.4
20260509190732 68 319 7.0 9.0 0.00 0.00 0.00 41 1011.1
20260509190229 67 315 3.0 6.0 0.00 0.00 0.00 40 1011.2
20260509185727 68 260 2.0 9.0 0.00 0.00 0.00 45 1011.2
20260509185223 67 33 3.0 6.0 0.00 0.00 0.00 40 1011.3
20260509184721 67 289 0.0 3.0 0.00 0.00 0.00 45 1011.4
20260509184218 67 330 8.0 8.0 0.00 0.00 0.00 42 1011.2
20260509183714 67 284 6.0 10.0 0.00 0.00 0.00 46 1011.6
20260509183209 69 316 2.0 10.0 0.00 0.00 0.00 44 1011.3
20260509182705 67 269 5.0 9.0 0.00 0.00 0.00 44 1011.5
20260509182203 67 267 3.0 11.0 0.00 0.00 0.00 50 1011.5
20260509181700 67 287 6.0 9.0 0.00 0.00 0.00 45 1011.3
20260509181158 67 264 4.0 6.0 0.00 0.00 0.00 47 1011.2
20260509180654 67 277 1.0 3.0 0.00 0.00 0.00 47 1011.4
20260509180150 66 137 5.0 7.0 0.00 0.00 0.00 48 1011.6
20260509175647 65 134 0.0 2.0 0.00 0.00 0.00 48 1011.8
20260509175144 65 311 1.0 3.0 0.00 0.00 0.00 55 1011.8
20260509174640 64 244 2.0 3.0 0.00 0.00 0.00 54 1011.8
20260509174139 65 236 1.0 2.0 0.00 0.00 0.00 52 1011.9
20260509173636 64 265 2.0 8.0 0.00 0.00 0.00 54 1012.0
20260509173131 62 240 3.0 7.0 0.00 0.00 0.00 63 1012.3
20260509172628 62 275 6.0 9.0 0.00 0.00 0.00 58 1012.3
20260509172124 62 225 5.0 8.0 0.00 0.00 0.00 56 1012.4
20260509171620 62 310 3.0 4.0 0.00 0.00 0.00 57 1012.3
20260509171117 61 307 3.0 7.0 0.00 0.00 0.00 58 1012.5
20260509170613 60 257 2.0 4.0 0.00 0.00 0.00 57 1012.3
20260509170109 60 258 2.0 6.0 0.00 0.00 0.00 58 1012.6
20260509165608 60 209 1.0 6.0 0.00 0.00 0.00 58 1012.4
20260509165103 60 230 1.0 4.0 0.00 0.00 0.00 62 1012.6
20260509164600 60 198 4.0 4.0 0.00 0.00 0.00 58 1012.5
20260509164055 61 210 1.0 10.0 0.00 0.00 0.00 57 1012.1
20260509163554 61 245 0.0 3.0 0.00 0.00 0.00 60 1012.5
20260509163049 61 236 0.0 1.0 0.00 0.00 0.00 61 1012.6
20260509162546 60 280 1.0 2.0 0.00 0.00 0.00 57 1012.4
20260509162042 60 258 2.0 9.0 0.00 0.00 0.00 58 1012.4
20260509161539 61 141 0.0 2.0 0.00 0.00 0.00 61 1012.3
20260509161039 60 287 2.0 2.0 0.00 0.00 0.00 56 1012.4
20260509160535 61 188 1.0 2.0 0.00 0.00 0.00 57 1012.4
20260509160030 61 292 1.0 3.0 0.00 0.00 0.00 62 1012.5
20260509155526 60 212 0.0 1.0 0.00 0.00 0.00 57 1012.4
20260509155023 60 214 1.0 1.0 0.00 0.00 0.00 59 1012.3
20260509154519 60 141 2.0 3.0 0.00 0.00 0.00 58 1012.1
20260509154017 60 321 2.0 4.0 0.00 0.00 0.00 56 1012.3
20260509153514 60 301 0.0 2.0 0.00 0.00 0.00 57 1012.5
20260509153011 60 301 2.0 2.0 0.00 0.00 0.00 54 1012.6
20260509152507 60 338 2.0 4.0 0.00 0.00 0.00 55 1012.5
20260509152003 60 300 2.0 3.0 0.00 0.00 0.00 56 1012.4
20260509151500 60 304 2.0 3.0 0.00 0.00 0.00 55 1012.5
20260509150958 60 36 1.0 2.0 0.00 0.00 0.00 56 1012.4
20260509150455 61 325 0.0 1.0 0.00 0.00 0.00 53 1012.4
20260509145953 61 320 2.0 3.0 0.00 0.00 0.00 54 1012.1
20260509145448 61 59 1.0 6.0 0.00 0.00 0.00 53 1012.6
20260509144944 61 297 2.0 3.0 0.00 0.00 0.00 53 1012.0
20260509144441 60 53 1.0 4.0 0.00 0.00 0.00 53 1012.0
20260509143938 60 325 3.0 8.0 0.00 0.00 0.00 55 1012.0
20260509143436 60 327 1.0 4.0 0.00 0.00 0.00 53 1011.8
20260509142932 60 83 1.0 3.0 0.00 0.00 0.00 56 1011.9
20260509142428 60 282 1.0 3.0 0.00 0.00 0.00 55 1011.8
20260509141923 60 306 3.0 4.0 0.00 0.00 0.00 53 1011.9
20260509141421 60 200 3.0 4.0 0.00 0.00 0.00 54 1011.7
20260509140918 61 253 4.0 7.0 0.00 0.00 0.00 52 1011.7
20260509140414 62 245 4.0 6.0 0.00 0.00 0.00 56 1011.9
20260509135912 61 237 1.0 3.0 0.00 0.00 0.00 55 1011.6
20260509135409 61 190 1.0 4.0 0.00 0.00 0.00 52 1011.5
20260509134907 59 65 1.0 6.0 0.00 0.00 0.00 55 1011.7
20260509134404 59 142 2.0 3.0 0.00 0.00 0.00 57 1011.8
20260509133901 59 257 3.0 6.0 0.00 0.00 0.00 55 1011.9
20260509133357 60 192 1.0 6.0 0.00 0.00 0.00 54 1012.1
20260509132856 61 164 2.0 2.0 0.00 0.00 0.00 51 1012.3
20260509132354 60 109 1.0 6.0 0.00 0.00 0.00 56 1012.6
20260509131851 59 171 1.0 1.0 0.00 0.00 0.00 56 1012.5
20260509131347 58 28 4.0 4.0 0.00 0.00 0.00 55 1012.4
20260509130844 58 179 1.0 1.0 0.00 0.00 0.00 64 1012.6
20260509130340 56 203 1.0 1.0 0.00 0.00 0.00 62 1012.5
20260509125837 55 125 0.0 2.0 0.00 0.00 0.00 72 1012.5
20260509125333 54 292 0.0 2.0 0.00 0.00 0.00 63 1012.6
20260509124829 53 157 0.0 2.0 0.00 0.00 0.00 72 1012.7
20260509124326 52 216 1.0 3.0 0.00 0.00 0.00 70 1012.6
20260509123825 51 157 1.0 3.0 0.00 0.00 0.00 70 1012.8
20260509123321 51 216 1.0 2.0 0.00 0.00 0.00 71 1012.8
20260509122817 51 211 1.0 3.0 0.00 0.00 0.00 70 1012.8
20260509122314 51 232 0.0 1.0 0.00 0.00 0.00 77 1012.6
20260509121811 50 214 1.0 1.0 0.00 0.00 0.00 73 1012.6
20260509121308 50 192 1.0 3.0 0.00 0.00 0.00 71 1012.6
20260509120807 50 235 0.0 0.0 0.00 0.00 0.00 79 1012.6
20260509120304 49 235 1.0 2.0 0.00 0.00 0.00 79 1012.9
20260509115802 49 217 0.0 1.0 0.00 0.00 0.00 80 1012.7
20260509115258 49 217 0.0 0.0 0.00 0.00 0.00 80 1012.8
20260509114756 48 221 0.0 1.0 0.00 0.00 0.00 80 1012.7
20260509114255 48 219 1.0 1.0 0.00 0.00 0.00 80 1012.8
20260509113753 48 258 1.0 2.0 0.00 0.00 0.00 80 1013.0
20260509113250 48 113 1.0 3.0 0.00 0.00 0.00 80 1013.0
20260509112747 48 198 1.0 1.0 0.00 0.00 0.00 82 1013.0
20260509112244 48 180 1.0 1.0 0.00 0.00 0.00 78 1013.0
20260509111742 48 205 1.0 1.0 0.00 0.00 0.00 81 1012.9
20260509111238 47 219 2.0 2.0 0.00 0.00 0.00 78 1012.8
20260509110735 47 213 0.0 0.0 0.00 0.00 0.00 82 1012.8
20260509110232 47 214 0.0 1.0 0.00 0.00 0.00 82 1012.9
20260509105730 47 220 0.0 1.0 0.00 0.00 0.00 83 1012.8
20260509105227 47 221 1.0 1.0 0.00 0.00 0.00 81 1012.9
20260509104724 47 221 0.0 0.0 0.00 0.00 0.00 79 1012.7
20260509104221 46 227 0.0 1.0 0.00 0.00 0.00 80 1012.6
20260509103719 46 239 1.0 2.0 0.00 0.00 0.00 81 1012.4
20260509103216 46 208 0.0 1.0 0.00 0.00 0.00 82 1012.6
20260509102714 46 208 0.0 1.0 0.00 0.00 0.00 83 1012.7
20260509102211 46 208 0.0 1.0 0.00 0.00 0.00 82 1012.6
20260509101707 46 170 0.0 3.0 0.00 0.00 0.00 81 1012.5
20260509101204 45 219 1.0 3.0 0.00 0.00 0.00 83 1012.5
20260509100701 45 205 0.0 1.0 0.00 0.00 0.00 85 1012.6
20260509100158 44 220 0.0 0.0 0.00 0.00 0.00 87 1012.5
20260509095655 45 220 0.0 0.0 0.00 0.00 0.00 87 1012.6
20260509095152 45 220 0.0 0.0 0.00 0.00 0.00 86 1012.5
20260509094649 45 220 0.0 0.0 0.00 0.00 0.00 87 1012.7
20260509094146 45 220 0.0 0.0 0.00 0.00 0.00 87 1012.7
20260509093645 45 220 0.0 0.0 0.00 0.00 0.00 86 1012.6
20260509093141 46 220 0.0 1.0 0.00 0.00 0.00 85 1012.6
20260509092639 46 220 1.0 1.0 0.00 0.00 0.00 83 1012.8
20260509092138 46 214 0.0 1.0 0.00 0.00 0.00 81 1012.9
20260509091635 46 131 0.0 1.0 0.00 0.00 0.00 81 1012.9
20260509091130 45 163 0.0 1.0 0.00 0.00 0.00 84 1012.7
20260509090628 45 163 0.0 1.0 0.00 0.00 0.00 87 1013.0
20260509090126 45 163 0.0 0.0 0.00 0.00 0.00 85 1013.0
20260509085623 45 163 0.0 1.0 0.00 0.00 0.00 85 1013.0
20260509085119 45 163 0.0 0.0 0.00 0.00 0.00 86 1013.0
20260509084617 45 163 0.0 0.0 0.00 0.00 0.00 86 1012.9
20260509084113 45 163 0.0 0.0 0.00 0.00 0.00 86 1012.9
20260509083611 45 163 0.0 0.0 0.00 0.00 0.00 86 1012.9
20260509083107 45 163 0.0 0.0 0.00 0.00 0.00 86 1013.1
20260509082605 46 163 0.0 0.0 0.00 0.00 0.00 84 1013.1
20260509082102 46 163 0.0 0.0 0.00 0.00 0.00 83 1013.2
20260509081559 46 163 0.0 0.0 0.00 0.00 0.00 83 1013.2
20260509081055 46 163 0.0 0.0 0.00 0.00 0.00 82 1013.4
20260509080554 47 162 0.0 1.0 0.00 0.00 0.00 78 1013.1
20260509080051 47 107 0.0 2.0 0.00 0.00 0.00 77 1013.2
20260509075548 47 119 0.0 0.0 0.00 0.00 0.00 77 1013.1
20260509075046 47 111 0.0 1.0 0.00 0.00 0.00 76 1013.2
20260509074543 47 114 1.0 2.0 0.00 0.00 0.00 76 1013.2
20260509074039 47 183 0.0 1.0 0.00 0.00 0.00 79 1013.2
20260509073536 47 183 0.0 1.0 0.00 0.00 0.00 77 1013.2
20260509073032 47 222 0.0 2.0 0.00 0.00 0.00 76 1013.2
20260509072529 47 205 1.0 2.0 0.00 0.00 0.00 77 1013.2
20260509072026 47 205 2.0 2.0 0.00 0.00 0.00 75 1013.0
20260509071522 47 150 0.0 2.0 0.00 0.00 0.00 75 1013.0
20260509071020 47 99 1.0 3.0 0.00 0.00 0.00 74 1013.0
20260509070517 47 227 0.0 3.0 0.00 0.00 0.00 74 1013.3
20260509070014 47 189 0.0 1.0 0.00 0.00 0.00 75 1013.3